x

9442396 - La Push, Wa (lapw1) Weather Station

2:30pm - Sun 19th Feb 2017 All times are PST. -8 hours from GMT.

  • Wind
    7mph, 13mph gusts
  • Sea Temp 43°f
  • Air Temp 44°f
  • Sea Pressure 995.1mb
  • 9442396 - La Push, Wa
  • 9442396 - La Push, Wa

More Historic Weather Station data

Upgrade to MSW Pro to gain access to the past 30 days of data for over 8000 Wavebouys and Weather Stations around the globe.

Join Pro

Comparision Forecast

View Surf forecast
   
Sun 02/19 2:30pm 7 13 mph 995.1mb 43f 44f
2:24pm 9 16 mph 995.1mb 43f 44f
2:18pm 8 17 mph 994.9mb 43f 44f
2:12pm 10 23 mph 994.9mb 43f 44f
2:06pm 13 20 mph 994.8mb 43f 44f
2:00pm 13 24 mph 994.8mb 43f 44f
1:36pm 5 14 mph 994.6mb 43f 44f
1:30pm 8 16 mph 994.6mb 43f 44f
1:24pm 14 20 mph 994.5mb 43f 44f
1:18pm 13 18 mph 994.5mb 43f 44f
1:12pm 10 22 mph 994.5mb 43f 44f
1:06pm 14 23 mph 994.5mb 43f 44f
1:00pm 13 22 mph 994.4mb 42f 44f
12:36pm 10 22 mph 994.2mb 42f 45f
12:30pm 9 16 mph 994.2mb 42f 44f
12:24pm 10 22 mph 994.2mb 42f 44f
12:18pm 13 22 mph 994.1mb 42f 44f
12:12pm 9 18 mph 994.1mb 42f 44f
12:06pm 11 20 mph 994.2mb 42f 43f
12:00pm 7 17 mph 994.1mb 42f 43f
11:36am 10 20 mph 994.1mb 42f 43f
11:30am 6 18 mph 994.1mb 43f 43f
11:24am 9 13 mph 994mb 42f 43f
11:18am 8 16 mph 994mb 43f 43f
11:12am 13 18 mph 994mb 43f 42f
11:06am 8 18 mph 993.9mb 43f 42f
11:00am 7 16 mph 993.8mb 43f 42f
10:36am 7 13 mph 993.7mb 42f 42f
10:30am 7 14 mph 993.6mb 42f 42f
10:24am 8 14 mph 993.7mb 43f 42f
10:18am 8 15 mph 993.6mb 43f 42f
10:12am 8 13 mph 993.6mb 43f 42f
10:06am 8 16 mph 993.7mb 43f 41f
10:00am 7 11 mph 993.7mb 42f 41f
9:36am 8 14 mph 993.4mb 43f 42f
9:30am 10 15 mph 993.5mb 43f 42f
9:24am 7 16 mph 993.4mb 43f 42f
9:18am 6 11 mph 993.4mb 44f 42f
9:12am 8 11 mph 993.4mb 44f 41f
9:06am 5 13 mph 993.3mb 44f 41f
9:00am 6 9 mph 993.3mb 44f 41f
8:36am 5 8 mph 993.3mb 45f 39f
8:30am 5 8 mph 993.4mb 45f 39f
8:24am 5 8 mph 993.3mb 45f 39f
8:18am 3 7 mph 993.4mb 46f 39f
8:12am 3 7 mph 993.5mb 46f 39f
8:06am 5 7 mph 993.4mb 46f 39f
8:00am 5 7 mph 993.3mb 46f 39f
7:36am 5 8 mph 993.3mb 46f 39f
7:30am 5 8 mph 993.3mb 46f 39f
7:24am 5 7 mph 993.3mb 46f 38f
7:18am 5 7 mph 993.4mb 46f 38f
7:12am 5 7 mph 993.4mb 46f 38f
7:06am 5 7 mph 993.3mb 46f 38f
7:00am 5 8 mph 993.3mb 46f 38f
6:36am 3 6 mph 993.3mb 46f 38f
6:30am 3 6 mph 993.3mb 47f 38f
6:24am 5 6 mph 993.3mb 46f 38f
6:18am 5 8 mph 993.4mb 46f 38f
6:12am 5 7 mph 993.5mb 46f 38f
6:06am 5 7 mph 993.5mb 46f 38f
6:00am 3 8 mph 993.5mb 46f 38f
5:36am 5 9 mph 993.4mb 46f 38f
5:30am 5 7 mph 993.4mb 47f 38f
5:24am 5 8 mph 993.4mb 47f 38f
5:18am 5 7 mph 993.4mb 46f 38f
5:12am 6 8 mph 993.4mb 46f 38f
5:06am 3 8 mph 993.4mb 46f 38f
5:00am 3 10 mph 993.5mb 46f 38f
4:36am 5 6 mph 993.5mb 46f 38f
4:30am 6 7 mph 993.5mb 46f 38f
4:24am 5 6 mph 993.5mb 46f 38f
4:18am 5 7 mph 993.5mb 46f 39f
4:12am 3 6 mph 993.7mb 46f 39f
4:06am 3 8 mph 993.8mb 46f 39f
4:00am 6
mph
993.8mb 46f 39f
3:36am 5 6 mph 994mb 46f 39f
3:30am 5 7 mph 994mb 46f 39f
3:24am 3 5 mph 994mb 46f 39f
3:18am 3 5 mph 994mb 46f 39f
3:12am 3 5 mph 994.1mb 46f 39f
3:06am 5 6 mph 994mb 46f 39f
3:00am 3 5 mph 994.1mb 45f 39f
2:36am 3 5 mph 994.4mb 44f 40f
2:30am 3 5 mph 994.5mb 43f 40f
2:24am 3 5 mph 994.5mb 43f 40f
2:18am 3 6 mph 994.5mb 43f 40f
2:12am 5 7 mph 994.5mb 43f 40f
2:06am 3 7 mph 994.6mb 43f 40f
2:00am 3 5 mph 994.6mb 43f 40f
1:36am 2 6 mph 994.6mb 43f 40f
1:30am 5 7 mph 994.7mb 43f 40f
1:24am 5 6 mph 994.7mb 43f 40f
1:18am 3 6 mph 994.8mb 43f 40f
1:12am 3 6 mph 994.9mb 43f 40f
1:06am 3 6 mph 995mb 43f 40f
1:00am 3 6 mph 995mb 43f 40f
12:36am 2 5 mph 995.2mb 43f 40f
12:30am 3 5 mph 995.2mb 43f 41f
12:24am 2 3 mph 995.3mb 43f 41f
12:18am 2 5 mph 995.3mb 43f 41f
12:12am 3 7 mph 995.4mb 43f 41f
12:06am 5 6 mph 995.5mb 43f 41f
12:00am 3 5 mph 995.5mb 42f 41f
Sat 02/18 11:36pm 6 10 mph 995.7mb 43f 41f
11:30pm 5 6 mph 995.7mb 43f 40f
11:24pm 5 8 mph 995.7mb 43f 40f
11:18pm 6 9 mph 995.8mb 43f 40f
11:12pm 3 5 mph 995.8mb 43f 40f
11:06pm 2 5 mph 995.9mb 43f 40f
11:00pm 2 6 mph 995.9mb 43f 40f
10:36pm 2 3 mph 995.8mb 43f 41f
10:30pm 3 6 mph 995.9mb 43f 41f
10:24pm 5 6 mph 995.8mb 43f 41f
10:18pm 3 6 mph 995.8mb 43f 42f
10:12pm 6 7 mph 995.8mb 43f 42f
10:06pm 2 6 mph 995.8mb 43f 42f
10:00pm 3 5 mph 995.9mb 43f 42f
9:36pm 2 3 mph 995.9mb 43f 42f
9:30pm 3 6 mph 995.9mb 43f 42f
9:24pm 2 9 mph 996mb 43f 43f
9:18pm 7 9 mph 996mb 43f 42f
9:12pm 5 8 mph 996mb 43f 43f
9:06pm 2 9 mph 995.9mb 43f 43f
9:00pm 3 6 mph 995.8mb 43f 43f
8:36pm 3 8 mph 995.7mb 43f 44f
8:30pm 6 9 mph 995.7mb 43f 43f
8:24pm  -  3 mph 995.6mb 43f 43f
8:18pm 2
mph
995.5mb 43f 43f
8:12pm 2 3 mph 995.5mb 43f 43f
8:06pm 3 5 mph 995.6mb 43f 44f
8:00pm 3 6 mph 995.6mb 43f 45f
7:36pm 6 7 mph 995.6mb 43f 45f
7:30pm 5 7 mph 995.6mb 43f 45f
7:24pm 6 7 mph 995.7mb 43f 45f
7:18pm 5 6 mph 995.7mb 43f 45f
7:12pm 5 7 mph 995.6mb 43f 45f
7:06pm 6 8 mph 995.6mb 43f 45f
7:00pm 6 8 mph 995.6mb 44f 45f
6:36pm 2 3 mph 995.7mb 44f 45f
6:30pm 3 5 mph 995.7mb 45f 45f
6:24pm 5 7 mph 995.6mb 45f 45f
6:18pm 5 7 mph 995.6mb 45f 45f
6:12pm 5 7 mph 995.7mb 45f 45f
6:06pm 6 8 mph 995.6mb 45f 45f
6:00pm 7 9 mph 995.6mb 45f 45f
5:36pm 7 11 mph 995.7mb 44f 46f
5:30pm 9 11 mph 995.8mb 44f 46f
5:24pm 7 10 mph 995.8mb 43f 46f
5:18pm 8 10 mph 995.8mb 43f 46f
5:12pm 8 10 mph 995.8mb 43f 46f
5:06pm 8 11 mph 995.7mb 43f 46f
5:00pm 9 14 mph 995.7mb 43f 46f
4:36pm 11 14 mph 995.8mb 43f 46f
4:30pm 10 13 mph 995.7mb 43f 46f
4:24pm 8 14 mph 995.7mb 43f 46f
4:18pm 13 15 mph 995.7mb 43f 46f
4:12pm 10 16 mph 995.7mb 43f 46f
4:06pm 13 15 mph 995.7mb 43f 46f
4:00pm 15 17 mph 995.7mb 43f 46f
3:36pm 7 9 mph 995.6mb 43f 47f
3:30pm 5 9 mph 995.6mb 43f 47f
3:24pm 8 9 mph 995.6mb 43f 47f
3:18pm 6 9 mph 995.6mb 43f 47f
3:12pm 7 14 mph 995.6mb 43f 47f
3:06pm 9 14 mph 995.6mb 43f 47f
3:00pm 7 10 mph 995.5mb 43f 47f
2:54pm 7 9 mph 995.4mb 43f 47f
2:48pm 8 11 mph 995.4mb 43f 47f
2:36pm 7 11 mph 995.4mb 43f 47f
2:30pm 10 13 mph 995.4mb 43f 47f
2:24pm 9 13 mph 995.4mb 43f 47f
2:18pm 8 13 mph 995.3mb 42f 47f
2:12pm 10 13 mph 995.3mb 43f 47f
2:06pm 8 13 mph 995.3mb 43f 48f
2:00pm 9 10 mph 995.4mb 43f 48f
1:54pm 8 10 mph 995.4mb 43f 47f
1:48pm 8 10 mph 995.4mb 43f 47f
1:36pm 9 11 mph 995.5mb 43f 47f
1:30pm 10 13 mph 995.6mb 43f 47f
1:24pm 10 13 mph 995.7mb 43f 47f
1:18pm 9 14 mph 995.7mb 43f 47f
1:12pm 11 15 mph 995.8mb 43f 47f
1:06pm 11 15 mph 995.8mb 43f 47f
1:00pm 9 18 mph 995.7mb 43f 47f
12:54pm 13 16 mph 995.8mb 43f 46f
12:48pm 9 15 mph 995.8mb 43f 46f
12:36pm 10 16 mph 995.9mb 43f 46f
12:30pm 10 17 mph 995.9mb 43f 46f
12:24pm 9 15 mph 995.9mb 43f 46f
12:18pm 10 15 mph 995.8mb 43f 46f
12:12pm 10 15 mph 995.9mb 43f 46f
12:06pm 9 14 mph 995.9mb 43f 46f
12:00pm 8 14 mph 995.9mb 43f 46f
11:54am 8 15 mph 995.9mb 43f 46f
11:48am 6 14 mph 996mb 43f 46f
11:36am 7 11 mph 996.1mb 42f 46f
11:30am 8 14 mph 996.1mb 42f 46f
11:24am 9 13 mph 996mb 42f 46f
11:18am 8 15 mph 996mb 42f 46f
11:12am 8 11 mph 996.1mb 42f 46f
11:06am 6 11 mph 996.1mb 42f 46f
11:00am 7 13 mph 996.2mb 42f 46f
10:54am 7 10 mph 996.2mb 42f 46f
10:48am 8 13 mph 996.3mb 42f 46f
10:36am 6 11 mph 996.3mb 42f 46f
10:30am 3 13 mph 996.3mb 42f 45f
10:24am 2 5 mph 996.4mb 42f 44f
10:18am 3 6 mph 996.4mb 42f 44f
10:12am 3 7 mph 996.5mb 42f 43f
10:06am 6 8 mph 996.4mb 42f 42f
10:00am 5 7 mph 996.5mb 42f 42f
9:54am 3 6 mph 996.4mb 42f 42f
9:48am 3 7 mph 996.4mb 43f 42f
9:36am 6 9 mph 996.3mb 43f 41f
9:30am 6 7 mph 996.3mb 43f 41f
9:24am 5 8 mph 996.6mb 43f 41f
9:18am 6 7 mph 996.6mb 42f 41f
9:12am 6 7 mph 996.7mb 42f 40f
9:06am 6 7 mph 996.7mb 42f 40f
9:00am 6 7 mph 996.6mb 42f 40f
8:54am 5 7 mph 996.6mb 42f 40f
8:48am 3 6 mph 996.6mb 43f 40f
8:36am 6 8 mph 996.7mb 43f 40f
8:30am 5 7 mph 996.7mb 43f 40f
8:24am 6 8 mph 996.7mb 43f 40f
8:18am 6 8 mph 996.7mb 43f 40f
8:12am 6 9 mph 996.7mb 43f 40f
8:06am 5 9 mph 996.7mb 43f 40f
8:00am 6 8 mph 996.7mb 43f 40f
7:54am 6 8 mph 996.7mb 43f 40f
7:48am 7 8 mph 996.8mb 43f 40f
7:36am 6 8 mph 996.9mb 43f 40f
7:30am 6 7 mph 996.9mb 43f 40f
7:24am 6 7 mph 997mb 43f 40f
7:18am 6 7 mph 997mb 43f 40f
7:12am 6
mph
997mb 43f 40f
7:06am 5 6 mph 997mb 43f 40f
7:00am 5 7 mph 997.1mb 43f 40f
6:54am 5 8 mph 997.1mb 44f 40f
6:48am 6 7 mph 997.1mb 44f 39f
6:36am 5 6 mph 997.2mb 44f 39f
6:30am 5 6 mph 997.3mb 45f 39f
6:24am 5 6 mph 997.4mb 45f 39f
6:18am 3 6 mph 997.4mb 45f 39f
6:12am 5 6 mph 997.3mb 46f 39f
6:06am 2 3 mph 997.3mb 46f 39f
6:00am 2 6 mph 997.3mb 46f 39f
5:36am 5 6 mph 997.5mb 46f 39f
5:30am 3 7 mph 997.5mb 46f 39f
5:24am 5 8 mph 997.5mb 46f 39f
5:18am 6 8 mph 997.5mb 46f 39f
5:12am 6 8 mph 997.5mb 46f 39f
5:06am 6 9 mph 997.6mb 46f 40f
5:00am 6 8 mph 997.5mb 46f 40f
4:54am 5 6 mph 997.5mb 46f 39f
4:48am 2 3 mph 997.6mb 46f 39f
4:36am 2 3 mph 997.6mb 46f 39f
4:30am 3 5 mph 997.6mb 46f 40f
4:24am 5
mph
997.6mb 46f 40f
4:18am 2 3 mph 997.7mb 46f 40f
4:12am 2 3 mph 997.7mb 46f 40f
4:06am 2 3 mph 997.7mb 46f 40f
4:00am 1 2 mph 997.7mb 46f 40f
3:54am 2 3 mph 997.8mb 46f 40f
3:48am 3 5 mph 997.7mb 46f 40f
3:36am 2 3 mph 997.7mb 46f 39f
3:30am 2 3 mph 997.7mb 45f 39f
3:24am 2 3 mph 997.7mb 45f 39f
3:18am 3 5 mph 997.6mb 44f 39f
3:12am 3 5 mph 997.6mb 44f 39f
3:06am 3 5 mph 997.6mb 44f 39f
3:00am 3 5 mph 997.6mb 43f 39f
2:54am 3 5 mph 997.6mb 43f 40f
2:48am 3 5 mph 997.6mb 43f 39f
2:36am 3 6 mph 997.7mb 43f 39f
2:30am 2 5 mph 997.7mb 43f 39f
2:24am 3 5 mph 997.7mb 43f 39f
2:18am 3
mph
997.8mb 43f 39f
2:12am 3 5 mph 997.8mb 43f 39f
2:06am 2 3 mph 997.8mb 43f 39f
2:00am 3
mph
997.8mb 43f 39f
1:54am 2 5 mph 997.7mb 43f 39f
1:48am 3 5 mph 997.8mb 43f 40f
1:36am 3 5 mph 997.9mb 43f 40f
1:30am 2 3 mph 998mb 43f 40f
1:24am 2 3 mph 998mb 43f 40f
1:18am 1 2 mph 998mb 43f 40f
1:12am 1 2 mph 998.1mb 43f 39f
1:06am 2 3 mph 998.1mb 43f 40f
1:00am 2 3 mph 998.1mb 43f 40f
12:54am 1 2 mph 998.2mb 43f 40f
12:48am 2 3 mph 998.3mb 43f 41f
12:36am 2
mph
998.4mb 43f 40f
12:30am  -  2 mph 998.4mb 43f 40f
12:24am 2 3 mph 998.5mb 43f 40f
12:18am 2 3 mph 998.5mb 43f 40f
12:12am 2
mph
998.6mb 43f 41f
12:06am 2 3 mph 998.6mb 43f 40f
12:00am 2
mph
998.5mb 43f 40f
Fri 02/17 11:54pm 1 2 mph 998.6mb 43f 41f
11:48pm 1 2 mph 998.7mb 43f 41f
11:36pm 1 3 mph 998.7mb 43f 42f
11:30pm 2 3 mph 998.8mb 43f 42f
11:24pm 2 3 mph 998.9mb 43f 41f
11:18pm 1 2 mph 999mb 43f 41f
11:12pm 2 3 mph 999mb 43f 42f
11:06pm 3 5 mph 999mb 43f 41f
11:00pm 3 5 mph 999mb 43f 42f
10:54pm 3 6 mph 999.1mb 43f 42f
10:48pm 3 6 mph 999.1mb 43f 42f
10:36pm 2 5 mph 999.2mb 43f 43f
10:30pm 2 5 mph 999.3mb 43f 43f
10:24pm 2 6 mph 999.4mb 43f 43f
10:18pm 3 6 mph 999.4mb 43f 43f
10:12pm 3 5 mph 999.5mb 43f 43f
10:06pm 5 6 mph 999.5mb 43f 43f
10:00pm 5 6 mph 999.5mb 43f 43f
9:54pm 3 5 mph 999.6mb 43f 43f
9:48pm 3 5 mph 999.7mb 43f 42f
9:36pm 5 8 mph 999.7mb 43f 43f
9:30pm 6 8 mph 999.8mb 43f 43f
9:24pm 6 7 mph 999.8mb 43f 42f
9:18pm 5 7 mph 999.8mb 43f 43f
9:12pm 5 8 mph 999.9mb 43f 43f
9:06pm 5 7 mph 1000mb 43f 43f
9:00pm 6 9 mph 999.9mb 43f 43f
8:54pm 5 7 mph 999.9mb 43f 43f
8:48pm 5 8 mph 999.9mb 43f 43f
8:36pm 6 9 mph 1000.1mb 43f 43f
8:30pm 5 8 mph 1000.1mb 43f 43f
8:24pm 3 7 mph 1000.1mb 43f 43f
8:18pm 5 8 mph 1000.1mb 43f 43f
8:12pm 5 6 mph 1000.1mb 43f 43f
8:06pm 3 6 mph 1000.2mb 43f 44f
8:00pm 5 8 mph 1000.2mb 43f 44f
7:54pm 5 9 mph 1000.2mb 43f 44f
7:48pm 6 9 mph 1000.2mb 43f 44f
7:36pm 5 8 mph 1000.4mb 44f 44f
7:30pm 5 7 mph 1000.5mb 43f 44f
7:24pm 6 7 mph 1000.6mb 43f 44f
7:18pm 5 9 mph 1000.8mb 43f 45f
7:12pm 7 11 mph 1000.9mb 43f 45f
7:06pm 7 13 mph 1001mb 43f 45f
7:00pm 7 9 mph 1001.1mb 43f 45f
6:54pm 7 10 mph 1001.3mb 43f 45f
6:48pm 7 9 mph 1001.2mb 43f 45f
6:36pm 7 13 mph 1001.3mb 43f 46f
6:30pm 10 14 mph 1001.3mb 43f 46f
6:24pm 7 11 mph 1001.3mb 43f 45f
6:18pm 5 9 mph 1001.4mb 43f 46f
6:12pm 7 10 mph 1001.3mb 43f 46f
6:06pm 7 9 mph 1001.3mb 43f 46f
6:00pm 7 14 mph 1001.3mb 43f 46f
5:54pm 7 14 mph 1001.3mb 44f 46f
5:48pm 8 14 mph 1001.3mb 43f 47f
5:36pm 9 13 mph 1001.3mb 43f 47f
5:30pm 8 13 mph 1001.4mb 43f 47f
5:24pm 7 14 mph 1001.4mb 43f 47f
5:18pm 6 11 mph 1001.4mb 43f 48f
5:12pm 8 16 mph 1001.3mb 43f 48f
5:06pm 7 10 mph 1001.4mb 43f 48f
5:00pm 7 15 mph 1001.4mb 43f 48f
4:36pm 6 13 mph 1001.5mb 43f 49f
4:30pm 7 14 mph 1001.5mb 43f 50f
4:24pm 5 11 mph 1001.5mb 43f 50f
4:18pm 6 10 mph 1001.6mb 43f 50f
4:12pm 6 15 mph 1001.6mb 43f 50f
4:06pm 8 14 mph 1001.6mb 43f 50f
4:00pm 10 16 mph 1001.7mb 43f 50f
3:54pm 10 16 mph 1001.7mb 43f 50f
3:48pm 10 15 mph 1001.8mb 43f 50f
3:36pm 8 13 mph 1001.9mb 43f 50f
3:30pm 9 14 mph 1001.9mb 43f 50f
3:24pm 8 16 mph 1001.9mb 43f 51f
3:18pm 9 15 mph 1001.8mb 43f 51f
3:12pm 8 13 mph 1001.9mb 43f 51f
3:06pm 9 14 mph 1001.9mb 43f 50f
3:00pm 10 14 mph 1002mb 43f 51f
2:54pm 6 13 mph 1002mb 43f 50f
2:48pm 8 10 mph 1002mb 43f 50f
2:36pm 8 13 mph 1002.3mb 43f 49f
2:30pm 7 15 mph 1002.4mb 43f 48f
2:24pm 14 17 mph 1002.5mb 43f 47f
2:18pm 15 18 mph 1002.6mb 43f 47f
2:12pm 13 18 mph 1002.7mb 43f 47f
2:06pm 14 17 mph 1002.7mb 43f 47f
2:00pm 14 18 mph 1002.9mb 43f 47f
1:54pm 15 17 mph 1003.1mb 43f 47f
1:48pm 15 17 mph 1003.3mb 43f 46f
1:36pm 14 17 mph 1003.6mb 43f 46f
1:30pm 15 18 mph 1003.7mb 43f 46f
1:24pm 15 17 mph 1003.9mb 43f 46f
1:18pm 14 16 mph 1004mb 43f 46f
1:12pm 14 16 mph 1004mb 43f 47f
1:06pm 14 15 mph 1004.2mb 43f 47f
1:00pm 11 14 mph 1004.3mb 43f 47f
12:54pm 9 10 mph 1004.5mb 43f 47f
12:48pm 9 10 mph 1004.6mb 43f 47f
12:36pm 9
mph
1004.9mb 43f 47f
12:30pm 8 10 mph 1005mb 43f 47f
12:24pm 9 10 mph 1005.1mb 43f 47f
12:18pm 8 9 mph 1005.2mb 43f 47f
12:12pm 9
mph
1005.4mb 43f 47f
12:06pm 7 8 mph 1005.4mb 43f 47f
12:00pm 7 8 mph 1005.4mb 43f 47f
11:54am 5 6 mph 1005.5mb 43f 47f
11:48am 3
mph
1005.5mb 43f 47f
11:36am 3
mph
1005.6mb 43f 47f
11:30am 3
mph
1005.6mb 43f 47f
11:24am 2 3 mph 1005.7mb 43f 47f
11:18am 3
mph
1005.7mb 43f 47f
11:12am 2
mph
1005.8mb 43f 47f
11:06am 2 3 mph 1005.8mb 43f 48f
11:00am 2 3 mph 1005.8mb 43f 48f
10:54am 2 3 mph 1005.9mb 43f 48f
10:48am  -  5 mph 1006mb 43f 47f
10:36am 2 5 mph 1006mb 43f 48f
10:30am 2 6 mph 1006.1mb 43f 47f
10:24am 2 6 mph 1006.1mb 43f 47f
10:18am 3 7 mph 1006.2mb 43f 47f
10:12am 3 6 mph 1006.3mb 43f 46f
10:06am 3 7 mph 1006.4mb 43f 46f
10:00am 5 7 mph 1006.4mb 43f 45f
9:36am 3 8 mph 1006.5mb 43f 45f
9:30am 5 6 mph 1006.6mb 43f 45f
9:24am 3 7 mph 1006.7mb 43f 44f
9:18am 3 6 mph 1006.7mb 43f 44f
9:12am 5 7 mph 1006.8mb 43f 44f
9:06am 5 6 mph 1006.8mb 43f 44f
9:00am 5 6 mph 1006.9mb 43f 43f
8:54am 6 7 mph 1006.9mb 43f 43f
8:48am 5 6 mph 1007mb 43f 43f
8:36am 5 6 mph 1007mb 43f 43f
8:30am 3 6 mph 1007mb 43f 43f
8:24am 5 7 mph 1007.1mb 43f 43f
8:18am 5 7 mph 1007.1mb 43f 43f
8:12am 5 6 mph 1007mb 43f 43f
8:06am 3 6 mph 1007mb 43f 43f
8:00am 5 8 mph 1007mb 43f 43f
7:54am 5 6 mph 1007mb 43f 43f
7:48am 5 6 mph 1007mb 44f 43f
7:36am 5 6 mph 1006.9mb 44f 43f
7:30am 3 6 mph 1006.9mb 44f 43f
7:24am 3 5 mph 1006.9mb 44f 43f
7:18am 3 6 mph 1006.9mb 43f 43f
7:12am 5 7 mph 1006.9mb 43f 43f
7:06am 3 5 mph 1006.9mb 43f 43f
7:00am 5 6 mph 1006.9mb 43f 43f
6:54am 5 6 mph 1006.9mb 43f 43f
6:48am 3 6 mph 1006.9mb 44f 43f
6:36am 3 6 mph 1006.9mb 44f 43f
6:30am 2 5 mph 1006.8mb 44f 43f
6:24am 3 6 mph 1006.8mb 44f 43f
6:18am 3 6 mph 1006.8mb 43f 43f
6:12am 5 7 mph 1006.8mb 44f 43f
6:06am 5 7 mph 1006.8mb 44f 43f
6:00am 3 5 mph 1006.8mb 44f 43f
5:54am 3 5 mph 1006.8mb 43f 43f
5:48am 3 5 mph 1006.8mb 43f 43f
5:36am 5 6 mph 1006.7mb 44f 43f
5:30am 2 3 mph 1006.8mb 44f 43f
5:24am 1 3 mph 1006.8mb 44f 43f
5:18am 2 3 mph 1006.7mb 44f 43f
5:12am 3 6 mph 1006.7mb 44f 43f
5:06am 3 5 mph 1006.8mb 44f 43f
5:00am 3 5 mph 1006.8mb 44f 43f
4:54am 3 6 mph 1006.8mb 44f 43f
4:48am 5
mph
1006.7mb 44f 43f
4:36am 3 6 mph 1006.7mb 44f 43f
4:30am 3 5 mph 1006.7mb 44f 43f
4:24am 3 6 mph 1006.7mb 44f 43f
4:18am 3 6 mph 1006.6mb 44f 43f
4:12am 3 6 mph 1006.6mb 44f 43f
4:06am 5
mph
1006.8mb 44f 43f
4:00am 3 5 mph 1006.8mb 43f 43f
3:54am 3 6 mph 1006.8mb 43f 43f
3:48am 5 6 mph 1006.8mb 44f 44f
3:36am 5 7 mph 1006.8mb 43f 44f
3:30am 2 6 mph 1006.8mb 43f 44f
3:24am 2 6 mph 1006.9mb 43f 44f
3:18am 3 5 mph 1006.9mb 43f 44f
3:12am 2 5 mph 1006.9mb 43f 44f
3:06am 2 5 mph 1007mb 44f 44f
3:00am 1 5 mph 1006.9mb 43f 44f
2:54am 2 6 mph 1007mb 43f 44f
2:48am 3 5 mph 1006.9mb 43f 44f
2:36am 2 3 mph 1007mb 43f 44f
2:30am 2 5 mph 1007mb 43f 45f
2:24am 3 6 mph 1007mb 43f 45f
2:18am 3 5 mph 1007.1mb 43f 44f
2:12am 2 5 mph 1007mb 43f 44f
2:06am 3 5 mph 1007mb 43f 44f
2:00am 2 3 mph 1006.9mb 43f 44f
1:54am 1 5 mph 1007mb 44f 44f
1:48am 1 5 mph 1007mb 44f 44f
1:36am 3 6 mph 1006.9mb 43f 44f
1:30am 5 7 mph 1006.8mb 44f 44f
1:24am 5 6 mph 1006.9mb 44f 44f
1:18am 5 6 mph 1006.8mb 44f 44f
1:12am 3 6 mph 1006.8mb 43f 44f
1:06am 5 6 mph 1006.8mb 43f 45f
1:00am 5 9 mph 1006.8mb 44f 45f
12:54am 5 13 mph 1006.8mb 44f 46f
12:48am 9 11 mph 1006.8mb 44f 46f
12:36am 3 6 mph 1006.8mb 43f 47f
12:30am 5 6 mph 1006.8mb 43f 46f
12:24am 3 5 mph 1006.8mb 43f 47f
12:18am 5 7 mph 1006.8mb 43f 47f
12:12am 5 7 mph 1006.7mb 43f 47f
12:06am 6 7 mph 1006.6mb 43f 47f
12:00am 6 7 mph 1006.6mb 44f 47f
Thu 02/16 11:54pm 7 9 mph 1006.5mb 43f 47f
11:48pm 7 9 mph 1006.5mb 43f 47f
11:36pm 8 13 mph 1006.4mb 43f 47f
11:30pm 9 11 mph 1006.4mb 43f 47f
11:24pm 8 10 mph 1006.4mb 43f 47f
11:18pm 7 13 mph 1006.4mb 43f 47f
11:12pm 9 11 mph 1006.4mb 44f 47f
11:06pm 7 10 mph 1006.4mb 44f 47f
11:00pm 7 9 mph 1006.3mb 44f 47f
10:36pm 8 11 mph 1006.1mb 44f 47f
10:30pm 7 10 mph 1006mb 44f 47f
10:24pm 8 11 mph 1006mb 44f 47f
10:18pm 9 11 mph 1005.9mb 44f 47f
10:12pm 8 11 mph 1005.9mb 44f 47f
10:06pm 9 14 mph 1005.8mb 44f 47f
10:00pm 9 15 mph 1005.8mb 44f 47f
9:36pm 9 13 mph 1005.6mb 44f 47f
9:30pm 11 14 mph 1005.5mb 44f 46f
9:24pm 8 11 mph 1005.4mb 44f 46f
9:18pm 7 11 mph 1005.3mb 44f 46f
9:12pm 9 11 mph 1005.2mb 44f 47f
9:06pm 6 8 mph 1005.1mb 44f 47f
9:00pm 6 8 mph 1005.1mb 44f 46f
8:54pm 3 6 mph 1005mb 44f 46f
8:48pm 1 3 mph 1004.9mb 44f 46f
8:36pm 6
mph
1004.7mb 44f 46f
8:30pm 5 7 mph 1004.7mb 44f 46f
8:24pm 6 7 mph 1004.6mb 44f 47f
8:18pm 6 8 mph 1004.5mb 44f 47f
8:12pm 6 10 mph 1004.4mb 44f 47f
8:06pm 5 9 mph 1004.3mb 44f 47f
8:00pm 7 8 mph 1004.2mb 44f 47f
7:54pm 6 10 mph 1004.2mb 44f 47f
7:48pm 7 10 mph 1004.1mb 44f 47f
7:36pm 7 9 mph 1004mb 44f 47f
7:30pm 8 10 mph 1004mb 44f 47f
7:24pm 7 8 mph 1003.9mb 44f 47f
7:18pm 7 9 mph 1003.8mb 44f 47f
7:12pm 5 7 mph 1003.7mb 44f 47f
7:06pm 5 7 mph 1003.6mb 44f 47f
7:00pm 7 10 mph 1003.6mb 44f 47f
6:54pm 8 11 mph 1003.5mb 44f 47f
6:48pm 8 10 mph 1003.5mb 44f 47f
6:36pm 6 10 mph 1003.3mb 44f 47f
6:30pm 6 8 mph 1003.2mb 44f 47f
6:24pm 6 8 mph 1003.2mb 44f 47f
6:18pm 7 9 mph 1003.1mb 44f 46f
6:12pm 6 8 mph 1003mb 44f 46f
6:06pm 3 6 mph 1003mb 44f 46f
6:00pm 5
mph
1002.9mb 44f 46f
5:54pm 3 5 mph 1002.8mb 44f 46f
5:48pm 3 5 mph 1002.7mb 44f 46f
5:36pm 3 5 mph 1002.6mb 44f 46f
5:30pm 3 5 mph 1002.4mb 44f 46f
5:24pm 5
mph
1002.4mb 44f 46f
5:18pm 5 6 mph 1002.3mb 44f 46f
5:12pm 6 7 mph 1002.2mb 44f 46f
5:06pm 5 8 mph 1002.2mb 44f 46f
5:00pm 8 9 mph 1002.1mb 44f 46f
4:54pm 6 7 mph 1002.1mb 44f 47f
4:48pm 5 7 mph 1002mb 44f 47f
4:36pm 7 10 mph 1002mb 44f 46f
4:30pm 9 10 mph 1002mb 44f 47f
4:24pm 8 11 mph 1001.9mb 44f 47f
4:18pm 8 10 mph 1001.9mb 44f 47f
4:12pm 8 10 mph 1001.8mb 44f 47f
4:06pm 7 10 mph 1001.7mb 44f 47f
4:00pm 7 9 mph 1001.7mb 44f 47f
3:54pm 6 8 mph 1001.7mb 44f 47f
3:48pm 6 8 mph 1001.5mb 44f 48f
3:36pm 7 9 mph 1001.5mb 44f 47f
3:30pm 6 9 mph 1001.4mb 44f 47f
3:24pm 8 11 mph 1001.2mb 44f 47f
3:18pm 8 10 mph 1001.1mb 44f 47f
3:12pm 7 9 mph 1001mb 44f 47f
3:06pm 5 7 mph 1000.8mb 44f 48f
3:00pm 6 8 mph 1000.7mb 44f 48f
2:54pm 6 8 mph 1000.5mb 44f 48f
2:48pm 5 8 mph 1000.4mb 44f 48f
2:36pm 8 9 mph 1000.2mb 44f 48f
2:30pm 8 9 mph 1000.1mb 44f 48f
2:24pm 7 8 mph 1000mb 44f 48f
2:18pm 6 9 mph 999.8mb 44f 48f
2:12pm 8 10 mph 999.8mb 44f 48f
2:06pm 8 10 mph 999.7mb 44f 48f
2:00pm 9 10 mph 999.7mb 44f 47f
1:54pm 5 8 mph 999.7mb 44f 47f
1:48pm 5 7 mph 999.8mb 44f 47f
1:36pm 6 8 mph 999.8mb 44f 46f
1:30pm 6 9 mph 999.7mb 44f 46f
1:24pm 8 11 mph 999.7mb 44f 46f
1:18pm 8 11 mph 999.7mb 44f 46f
1:12pm 7 14 mph 999.6mb 44f 46f
1:06pm 8 14 mph 999.7mb 44f 46f
1:00pm 10 14 mph 999.6mb 44f 46f
12:54pm 8 11 mph 999.6mb 44f 46f
12:48pm 9 13 mph 999.5mb 44f 47f
12:36pm 7 9 mph 999.4mb 44f 46f
12:30pm 5 7 mph 999.3mb 44f 46f
12:24pm 6 7 mph 999.2mb 44f 47f
12:18pm 7 13 mph 999.1mb 44f 47f
12:12pm 6 10 mph 999.1mb 44f 47f
12:06pm 5 6 mph 999mb 43f 47f
12:00pm 5 9 mph 998.9mb 43f 47f
11:54am 6 7 mph 998.9mb 43f 47f
11:48am 6 8 mph 998.7mb 43f 47f
11:36am 5 10 mph 998.5mb 43f 46f
11:30am 6 9 mph 998.4mb 44f 47f
11:24am 6 7 mph 998.3mb 44f 47f
11:18am 6 7 mph 998.2mb 44f 47f
11:12am 5 6 mph 998.1mb 43f 47f
11:06am 5 6 mph 998mb 43f 47f
11:00am 5 6 mph 997.9mb 43f 47f
10:54am 5 7 mph 997.9mb 43f 47f
10:48am 5 6 mph 997.9mb 44f 47f
10:36am 5 8 mph 997.8mb 43f 47f
10:30am 5 7 mph 997.7mb 43f 47f
10:24am 6 8 mph 997.7mb 44f 47f
10:18am 5 7 mph 997.5mb 44f 47f
10:12am 7 8 mph 997.5mb 43f 47f
10:06am 6 7 mph 997.3mb 44f 47f
10:00am 5 7 mph 997.3mb 44f 47f
9:54am 6 9 mph 997.2mb 44f 47f
9:48am 6 9 mph 997.2mb 44f 47f
9:36am 6 11 mph 997.2mb 44f 47f
9:30am 6 8 mph 997.2mb 44f 47f
9:24am 5 9 mph 997.2mb 44f 47f
9:18am 6 8 mph 997.2mb 44f 47f
9:12am 6 9 mph 997.3mb 44f 47f
9:06am 7 10 mph 997.3mb 44f 47f
9:00am 7 11 mph 997.3mb 44f 47f
8:54am 7 10 mph 997.3mb 44f 47f
8:48am 7 11 mph 997.3mb 44f 47f
8:36am 6 10 mph 997.2mb 44f 47f
8:30am 7 11 mph 997.2mb 44f 47f
8:24am 9 14 mph 997.1mb 44f 47f
8:18am 9 13 mph 997.1mb 44f 47f
8:12am 10 15 mph 997mb 44f 47f
8:06am 11 14 mph 997mb 44f 47f
8:00am 10 14 mph 996.9mb 44f 47f
7:54am 11 16 mph 996.8mb 44f 47f
7:48am 8 11 mph 996.7mb 44f 47f
7:36am 8 14 mph 996.5mb 44f 47f
7:30am 6 10 mph 996.4mb 44f 47f
7:24am 7 9 mph 996.3mb 44f 47f
7:18am 7 10 mph 996.2mb 44f 47f
7:12am 8 14 mph 996.1mb 44f 47f
7:06am 8 13 mph 996mb 44f 47f
7:00am 9 11 mph 995.9mb 44f 47f
6:54am 7 16 mph 995.8mb 44f 47f
6:48am 11 14 mph 995.8mb 44f 47f
6:36am 8 15 mph 995.7mb 44f 47f
6:30am 9 13 mph 995.7mb 44f 47f
6:24am 9 14 mph 995.6mb 44f 47f
6:18am 9 13 mph 995.6mb 44f 47f
6:12am 9 13 mph 995.5mb 44f 47f
6:06am 8 11 mph 995.4mb 44f 47f
6:00am 10 14 mph 995.4mb 44f 47f
5:54am 10 13 mph 995.3mb 44f 47f
5:48am 9 13 mph 995.3mb 44f 47f
5:36am 10 14 mph 995.2mb 44f 47f
5:30am 9 13 mph 995.1mb 44f 46f
5:24am 10 13 mph 995.1mb 44f 46f
5:18am 8 11 mph 995.1mb 44f 46f
5:12am 10 15 mph 995.1mb 44f 46f
5:06am 10 14 mph 995.1mb 44f 46f
5:00am 9 14 mph 995.2mb 44f 47f
4:54am 11 14 mph 995.1mb 45f 47f
4:48am 13 16 mph 995mb 45f 47f
4:36am 11 20 mph 995mb 44f 48f
4:30am 11 17 mph 994.9mb 44f 48f
4:24am 13 23 mph 994.8mb 44f 48f
4:18am 11 18 mph 994.7mb 44f 48f
4:12am 13 17 mph 994.6mb 44f 48f
4:06am 11 18 mph 994.6mb 44f 47f
4:00am 11 17 mph 994.4mb 45f 47f
3:54am 13 18 mph 994.4mb 45f 47f
3:48am 14 21 mph 994.3mb 44f 47f
3:36am 18 23 mph 994.2mb 45f 47f
3:30am 16 23 mph 994.2mb 45f 47f
3:24am 16 22 mph 994.3mb 45f 47f
3:18am 20 24 mph 994.2mb 44f 47f
3:12am 21 25 mph 994.1mb 45f 47f
3:06am 18 24 mph 994.1mb 45f 47f
3:00am 18 28 mph 994.1mb 45f 48f
2:54am 17 28 mph 994.1mb 45f 48f
2:48am 20 28 mph 994.1mb 45f 49f
2:36am 18 25 mph 994mb 45f 49f
2:30am 18 28 mph 994mb 45f 49f
2:24am 17 22 mph 994.1mb 45f 49f
2:18am 16 22 mph 994.2mb 45f 49f
2:12am 16 23 mph 994.1mb 45f 49f
2:06am 16 22 mph 993.9mb 45f 49f
2:00am 18 22 mph 993.8mb 45f 49f
1:54am 18 29 mph 993.8mb 45f 49f
1:48am 20 29 mph 993.7mb 45f 49f
1:36am 20 30 mph 993.7mb 45f 49f
1:30am 23 32 mph 993.6mb 45f 49f
1:24am 28 33 mph 993.5mb 45f 50f
1:18am 28 33 mph 993.3mb 45f 49f
1:12am 21 30 mph 993.1mb 45f 50f
1:06am 24 36 mph 992.9mb 45f 50f
1:00am 29 36 mph 992.7mb 45f 50f
12:54am 26 37 mph 992.6mb 45f 50f
12:48am 30 40 mph 992.4mb 45f 51f
12:36am 31 40 mph 992.2mb 45f 51f
12:30am 30 41 mph 992.2mb 45f 51f
12:24am 23 36 mph 992.1mb 45f 51f
12:18am 28 37 mph 991.9mb 45f 51f
12:12am 24 38 mph 991.9mb 45f 51f
12:06am 25 34 mph 991.8mb 45f 52f
12:00am 26 40 mph 991.7mb 45f 51f
Wed 02/15 11:54pm 24 40 mph 991.5mb 45f 52f
11:48pm 21 40 mph 991.4mb 45f 51f
11:36pm 24 37 mph 991.5mb 45f 52f
11:30pm 22 36 mph 991.5mb 44f 52f